Time,TemperatureF,DewpointF,PressureIn,WindDirection,WindDirectionDegrees,WindSpeedMPH,WindSpeedGustMPH,Humidity,HourlyPrecipIn,Conditions,Clouds,dailyrainin,SoftwareType,DateUTC
2013-07-08 00:00:00,73.7,71.0,30.05,South,170,0.0,1.0,91,0.00,,,0.00,weatherlink.com 1.10,2013-07-08 05:00:00,
2013-07-08 00:15:00,73.2,71.0,30.05,South,170,0.0,2.0,92,0.00,,,0.00,weatherlink.com 1.10,2013-07-08 05:15:00,
2013-07-08 00:30:00,73.2,71.0,30.05,South,171,0.0,3.0,92,0.00,,,0.00,weatherlink.com 1.10,2013-07-08 05:30:00,
2013-07-08 00:45:00,73.1,71.0,30.05,South,172,0.0,2.0,92,0.00,,,0.00,weatherlink.com 1.10,2013-07-08 05:45:00,
2013-07-08 01:00:00,72.8,71.0,30.04,South,171,0.0,2.0,93,0.00,,,0.00,weatherlink.com 1.10,2013-07-08 06:00:00,
2013-07-08 01:15:00,72.5,70.0,30.04,South,171,0.0,2.0,93,0.00,,,0.00,weatherlink.com 1.10,2013-07-08 06:15:00,
2013-07-08 01:30:00,72.9,71.0,30.04,SSE,168,1.0,4.0,93,0.00,,,0.00,weatherlink.com 1.10,2013-07-08 06:30:00,
2013-07-08 01:45:00,73.1,71.0,30.04,SSE,166,0.0,4.0,93,0.00,,,0.00,weatherlink.com 1.10,2013-07-08 06:45:00,
2013-07-08 02:00:00,73.3,71.0,30.03,SSW,194,2.0,6.0,92,0.00,,,0.00,weatherlink.com 1.10,2013-07-08 07:00:00,
2013-07-08 02:15:00,73.7,71.0,30.04,SSW,193,1.0,6.0,91,0.00,,,0.00,weatherlink.com 1.10,2013-07-08 07:15:00,
2013-07-08 02:30:00,73.8,71.0,30.04,South,170,5.0,5.0,91,0.00,,,0.00,weatherlink.com 1.10,2013-07-08 07:30:00,
2013-07-08 02:45:00,73.7,71.0,30.04,West,259,0.0,3.0,91,0.00,,,0.00,weatherlink.com 1.10,2013-07-08 07:45:00,
2013-07-08 03:00:00,73.3,71.0,30.04,SW,231,0.0,2.0,91,0.00,,,0.00,weatherlink.com 1.10,2013-07-08 08:00:00,
2013-07-08 03:15:00,73.0,71.0,30.03,SW,220,0.0,5.0,92,0.00,,,0.00,weatherlink.com 1.10,2013-07-08 08:15:00,
2013-07-08 03:30:00,72.9,71.0,30.02,SSW,193,0.0,3.0,92,0.00,,,0.00,weatherlink.com 1.10,2013-07-08 08:30:00,
2013-07-08 03:45:00,72.7,70.0,30.02,SSW,197,0.0,4.0,92,0.00,,,0.00,weatherlink.com 1.10,2013-07-08 08:45:00,
2013-07-08 04:00:00,72.7,70.0,30.02,SSW,197,1.0,2.0,92,0.00,,,0.00,weatherlink.com 1.10,2013-07-08 09:00:00,
2013-07-08 04:15:00,72.6,70.0,30.02,South,171,1.0,3.0,91,0.00,,,0.00,weatherlink.com 1.10,2013-07-08 09:15:00,
2013-07-08 04:30:00,71.4,69.0,30.03,South,171,2.0,3.0,93,0.00,,,0.00,weatherlink.com 1.10,2013-07-08 09:30:00,
2013-07-08 04:45:00,71.6,70.0,30.02,South,171,1.0,2.0,93,0.00,,,0.00,weatherlink.com 1.10,2013-07-08 09:45:00,
2013-07-08 05:00:00,71.4,69.0,30.02,South,171,0.0,2.0,93,0.00,,,0.00,weatherlink.com 1.10,2013-07-08 10:00:00,
2013-07-08 05:15:00,71.0,69.0,30.03,South,171,0.0,1.0,93,0.00,,,0.00,weatherlink.com 1.10,2013-07-08 10:15:00,
2013-07-08 05:30:00,70.6,69.0,30.04,South,171,0.0,3.0,94,0.00,,,0.00,weatherlink.com 1.10,2013-07-08 10:30:00,
2013-07-08 05:45:00,70.7,69.0,30.04,South,171,0.0,3.0,94,0.00,,,0.00,weatherlink.com 1.10,2013-07-08 10:45:00,
2013-07-08 06:00:00,70.9,69.0,30.04,South,171,1.0,4.0,94,0.00,,,0.00,weatherlink.com 1.10,2013-07-08 11:00:00,
2013-07-08 06:15:00,71.4,70.0,30.04,South,171,1.0,3.0,94,0.00,,,0.00,weatherlink.com 1.10,2013-07-08 11:15:00,
2013-07-08 06:30:00,72.1,70.0,30.03,South,170,2.0,5.0,93,0.00,,,0.00,weatherlink.com 1.10,2013-07-08 11:30:00,
2013-07-08 06:45:00,73.2,71.0,30.04,South,187,1.0,5.0,92,0.00,,,0.00,weatherlink.com 1.10,2013-07-08 11:45:00,
2013-07-08 07:00:00,73.7,71.0,30.04,South,189,2.0,3.0,90,0.00,,,0.00,weatherlink.com 1.10,2013-07-08 12:00:00,
2013-07-08 07:15:00,73.7,71.0,30.04,SW,217,1.0,3.0,90,0.00,,,0.00,weatherlink.com 1.10,2013-07-08 12:15:00,
2013-07-08 07:30:00,73.8,71.0,30.05,SW,218,1.0,4.0,90,0.00,,,0.00,weatherlink.com 1.10,2013-07-08 12:30:00,
2013-07-08 07:45:00,74.7,71.0,30.05,SW,224,0.0,4.0,89,0.00,,,0.00,weatherlink.com 1.10,2013-07-08 12:45:00,
2013-07-08 08:00:00,75.8,72.0,30.06,WSW,251,4.0,4.0,87,0.00,,,0.00,weatherlink.com 1.10,2013-07-08 13:00:00,
2013-07-08 08:15:00,76.2,71.0,30.06,West,279,1.0,8.0,85,0.00,,,0.00,weatherlink.com 1.10,2013-07-08 13:15:00,
2013-07-08 08:30:00,76.7,72.0,30.06,West,266,2.0,8.0,85,0.00,,,0.00,weatherlink.com 1.10,2013-07-08 13:30:00,
2013-07-08 08:45:00,76.2,71.0,30.06,SW,224,2.0,6.0,85,0.00,,,0.00,weatherlink.com 1.10,2013-07-08 13:45:00,
2013-07-08 09:00:00,75.6,72.0,30.06,WSW,241,0.0,7.0,87,0.00,,,0.00,weatherlink.com 1.10,2013-07-08 14:00:00,
2013-07-08 09:15:00,74.8,72.0,30.07,SSW,199,1.0,6.0,90,0.00,,,0.00,weatherlink.com 1.10,2013-07-08 14:15:00,
2013-07-08 09:30:00,74.2,72.0,30.06,SSE,163,2.0,5.0,92,0.01,,,0.01,weatherlink.com 1.10,2013-07-08 14:30:00,
2013-07-08 09:45:00,74.1,72.0,30.07,West,278,3.0,5.0,92,0.02,,,0.02,weatherlink.com 1.10,2013-07-08 14:45:00,
2013-07-08 10:00:00,74.7,72.0,30.07,SW,219,0.0,5.0,92,0.02,,,0.02,weatherlink.com 1.10,2013-07-08 15:00:00,
2013-07-08 10:15:00,74.7,72.0,30.07,WSW,240,2.0,5.0,91,0.02,,,0.02,weatherlink.com 1.10,2013-07-08 15:15:00,
2013-07-08 10:30:00,75.2,72.0,30.08,WNW,297,5.0,5.0,89,0.01,,,0.02,weatherlink.com 1.10,2013-07-08 15:30:00,
2013-07-08 10:45:00,74.5,71.0,30.09,WSW,237,3.0,8.0,89,0.00,,,0.02,weatherlink.com 1.10,2013-07-08 15:45:00,
2013-07-08 11:01:00,74.6,72.0,30.08,WSW,241,0.0,1.0,90,0.00,,,0.02,weatherlink.com 1.10,2013-07-08 16:01:00,
2013-07-08 11:15:00,74.1,72.0,30.09,WSW,241,3.0,3.0,92,0.00,,,0.02,weatherlink.com 1.10,2013-07-08 16:15:00,
2013-07-08 11:31:00,74.1,72.0,30.10,North,2,5.0,7.0,92,0.01,,,0.03,weatherlink.com 1.10,2013-07-08 16:31:00,
2013-07-08 11:46:00,73.2,71.0,30.11,NNW,340,4.0,10.0,93,0.03,,,0.05,weatherlink.com 1.10,2013-07-08 16:46:00,
2013-07-08 12:01:00,72.0,70.0,30.12,NNW,331,3.0,9.0,94,0.07,,,0.09,weatherlink.com 1.10,2013-07-08 17:01:00,
2013-07-08 12:16:00,70.4,68.0,30.09,SSE,166,5.0,6.0,93,0.18,,,0.20,weatherlink.com 1.10,2013-07-08 17:16:00,
2013-07-08 12:31:00,69.2,67.0,30.09,SW,228,1.0,8.0,93,0.19,,,0.22,weatherlink.com 1.10,2013-07-08 17:31:00,
2013-07-08 12:46:00,69.7,68.0,30.07,SW,219,3.0,8.0,94,0.18,,,0.23,weatherlink.com 1.10,2013-07-08 17:46:00,
2013-07-08 13:01:00,69.7,68.0,30.06,SSW,198,2.0,8.0,95,0.16,,,0.26,weatherlink.com 1.10,2013-07-08 18:01:00,
2013-07-08 13:31:00,68.9,68.0,30.03,SSE,162,3.0,9.0,96,0.12,,,0.34,weatherlink.com 1.10,2013-07-08 18:31:00,
2013-07-08 14:01:00,71.1,70.0,30.02,SSE,157,3.0,5.0,97,0.09,,,0.35,weatherlink.com 1.10,2013-07-08 19:01:00,
2013-07-08 14:16:00,74.8,72.0,30.02,South,180,2.0,8.0,92,0.05,,,0.35,weatherlink.com 1.10,2013-07-08 19:16:00,
2013-07-08 14:31:00,77.5,73.0,30.01,South,174,11.0,12.0,87,0.01,,,0.35,weatherlink.com 1.10,2013-07-08 19:31:00,
2013-07-08 14:46:00,78.6,73.0,30.01,South,179,9.0,14.0,83,0.00,,,0.35,weatherlink.com 1.10,2013-07-08 19:46:00,
2013-07-08 15:01:00,79.4,74.0,30.01,South,191,3.0,15.0,84,0.00,,,0.35,weatherlink.com 1.10,2013-07-08 20:01:00,
2013-07-08 16:01:00,82.4,76.0,29.99,SSE,162,3.0,10.0,82,0.00,,,0.35,weatherlink.com 1.10,2013-07-08 21:01:00,
2013-07-08 16:31:00,84.8,75.0,29.99,SSE,160,2.0,14.0,72,0.00,,,0.35,weatherlink.com 1.10,2013-07-08 21:31:00,
2013-07-08 17:01:00,84.6,75.0,29.99,SSW,206,4.0,9.0,72,0.00,,,0.35,weatherlink.com 1.10,2013-07-08 22:01:00,
2013-07-08 17:16:00,84.3,75.0,29.99,South,175,2.0,7.0,74,0.00,,,0.35,weatherlink.com 1.10,2013-07-08 22:16:00,
2013-07-08 18:01:00,84.7,76.0,29.98,South,178,1.0,9.0,75,0.00,,,0.35,weatherlink.com 1.10,2013-07-08 23:01:00,
2013-07-08 18:16:00,84.2,76.0,29.98,South,184,1.0,6.0,76,0.00,,,0.35,weatherlink.com 1.10,2013-07-08 23:16:00,
2013-07-08 18:46:00,83.9,75.0,29.98,SSW,200,1.0,8.0,75,0.00,,,0.35,weatherlink.com 1.10,2013-07-08 23:46:00,
2013-07-08 19:01:00,83.7,75.0,29.98,WNW,283,5.0,10.0,74,0.00,,,0.35,weatherlink.com 1.10,2013-07-09 00:01:00,
2013-07-08 19:31:00,82.8,75.0,29.99,South,190,1.0,5.0,76,0.00,,,0.35,weatherlink.com 1.10,2013-07-09 00:31:00,
2013-07-08 19:46:00,82.3,74.0,29.99,WSW,244,5.0,7.0,75,0.00,,,0.35,weatherlink.com 1.10,2013-07-09 00:46:00,
2013-07-08 20:16:00,80.7,73.0,30.00,SSW,205,0.0,3.0,77,0.00,,,0.35,weatherlink.com 1.10,2013-07-09 01:16:00,
2013-07-08 20:31:00,79.8,73.0,29.99,SSW,205,1.0,3.0,79,0.00,,,0.35,weatherlink.com 1.10,2013-07-09 01:31:00,
2013-07-08 20:46:00,79.0,73.0,29.99,South,174,0.0,4.0,81,0.00,,,0.35,weatherlink.com 1.10,2013-07-09 01:46:00,
2013-07-08 21:01:00,77.8,73.0,30.00,SW,218,1.0,2.0,84,0.00,,,0.35,weatherlink.com 1.10,2013-07-09 02:01:00,
2013-07-08 21:16:00,76.5,72.0,30.00,SSW,209,1.0,3.0,86,0.00,,,0.35,weatherlink.com 1.10,2013-07-09 02:16:00,
2013-07-08 22:17:00,76.3,72.0,30.02,West,259,0.0,2.0,87,0.00,,,0.35,weatherlink.com 1.10,2013-07-09 03:17:00,
2013-07-08 22:31:00,75.9,72.0,30.02,WSW,252,0.0,3.0,88,0.00,,,0.35,weatherlink.com 1.10,2013-07-09 03:31:00,
2013-07-08 22:46:00,75.7,72.0,30.02,WSW,252,0.0,1.0,89,0.00,,,0.35,weatherlink.com 1.10,2013-07-09 03:46:00,
2013-07-08 23:17:00,75.4,72.0,30.02,WSW,247,0.0,2.0,90,0.00,,,0.35,weatherlink.com 1.10,2013-07-09 04:17:00,
2013-07-08 23:32:00,75.9,73.0,30.03,NNE,28,4.0,5.0,90,0.00,,,0.35,weatherlink.com 1.10,2013-07-09 04:32:00,
2013-07-08 23:47:00,76.3,73.0,30.03,North,8,0.0,6.0,89,0.00,,,0.35,weatherlink.com 1.10,2013-07-09 04:47:00,